Regional Weather Roundup
Issued by NWS

Home | Current Version | Previous Version | Text Only | Print | Product List | Glossary On
Versions: 1 2 3 4 5 6 7 8 9 10 11 12 13 14 15 16 17 18 19 20 21 22 23 24 25 26 27 28 29 30 31 32 33 34 35 36 37 38 39 40 41 42 43 44 45 46 47 48 49 50
000
ASUS43 KMPX 220101
RWRMN
WEATHER ROUNDUP FOR MINNESOTA
NATIONAL WEATHER SERVICE TWIN CITIES/CHANHASSEN MN
800 PM CDT MON AUG 21 2017


NOTE: "FAIR" INDICATES FEW OR NO CLOUDS BELOW 12,000 FEET WITH NO
SIGNIFICANT WEATHER AND/OR OBSTRUCTIONS TO VISIBILITY. N/A MEANS
CURRENT SKY AND/OR WEATHER CONDITIONS ARE NOT AVAILABLE.

MNZ060>063-068>070-220200-
   Twin Cities Metro

CITY           SKY/WX    TMP DP  RH WIND       PRES   REMARKS
TWIN CITIES    CLOUDY    70  64  81 SW9       29.87F
ST PAUL        CLOUDY    69  67  93 W6        29.87F
CRYSTAL        MOCLDY    70  63  78 W13       29.86S
BLAINE         CLOUDY    72  66  83 SW5       29.87S
LAKEVILLE      CLOUDY    66  66 100 W7        29.88S
EDEN PRAIRIE   MOCLDY    70  65  84 W10G21    29.87S
SOUTH ST PAUL  CLOUDY    69  67  95 W3        29.87F
LAKE ELMO      FAIR      68  64  88 W3        29.88F
$$
MNZ001>005-007-008-013>017-022>024-027-028-220200-
   Northwest Minnesota

CITY           SKY/WX    TMP DP  RH WIND       PRES   REMARKS
BEMIDJI        CLOUDY    61  59  94 N3        29.88F
HALLOCK        PTCLDY    66  54  63 NW10      29.93R
ROSEAU           N/A     63  55  77 N6        29.91R
WARROAD        CLOUDY    61  57  88 NW6       29.91S
CROOKSTON      MOCLDY    70  55  60 CALM      29.89S
FOSSTON        MOCLDY    64  57  77 CALM      29.90S
DETROIT LAKES  PTCLDY    68  59  73 W10       29.90R
MOORHEAD       CLEAR     70  57  64 NW9       29.90S
PARK RAPIDS    PTCLDY    69  60  73 CALM      29.86S
MAHNOMEN       CLOUDY    66  58  75 N7        29.89S
$$
MNZ006-009>011-018-025>026-220200-
   North Central Minnesota

CITY           SKY/WX    TMP DP  RH WIND       PRES   REMARKS
BAUDETTE       MOCLDY    61  58  90 S3        29.87F
FLAG ISLAND    CLOUDY    63  55  77 N10       29.90R
WASKISH        CLOUDY    57  55  94 CALM      29.88F
BIG FORK       RAIN      57  54  88 NE5       29.88F
LONGVILLE      CLOUDY    64  61  88 N3        29.86S
GRAND RAPIDS   CLOUDY    63  59  87 N6        29.88R
ORR            LGT RAIN  57  52  82 CALM      29.88S
COOK           CLOUDY    61  55  82 NW3       29.90R
WALKER         CLOUDY    63  57  80 N5        29.87S
$$
MNZ012-019>021-037-220200-
   Northeast Minnesota

CITY           SKY/WX    TMP DP  RH WIND       PRES   REMARKS
DULUTH         TSTM      60  60 100 N13       29.84F
ELY            CLOUDY    61  57  88 CALM      29.87F
HIBBING        CLOUDY    60  57  89 N5        29.86F
EVELETH        CLOUDY    60  56  85 CALM      29.87S
DULUTH HARBOR  CLOUDY    63  61  94 N17       29.82F
TWO HARBORS    RAIN      63  59  88 NE3       29.84F
GRAND MARAIS     N/A     62  59  90 N5        29.84F
$$
MNZ029>031-032-039>041-046>048-054>057-064-220200-
   West Central Minnesota

CITY           SKY/WX    TMP DP  RH WIND       PRES   REMARKS
FERGUS FALLS   CLEAR     66  61  82 NW8       29.89R
WHEATON        CLEAR     70  59  68 W5        29.93R
MORRIS         CLEAR     70  63  78 NW6       29.90S
ALEXANDRIA     CLOUDY    68  63  84 W7        29.91R
ELBOW LAKE     FAIR      68  61  78 NW8       29.91R HAZE
WADENA         PTCLDY    66  63  88 W5        29.87S
GLENWOOD       CLEAR     66  63  88 W6        29.90F
APPLETON       CLEAR     70  63  78 W5        29.91S
BENSON         PTCLDY    70  63  78 NW6       29.92S
ORTONVILLE     CLEAR     72  63  73 MISG      29.92S
MADISON        CLEAR     72  70  94 W3        29.92F
WILLMAR        FAIR      68  66  94 W9        29.91S
$$
MNZ033>034-036-042>043-049>051-058-059-220200-
   Central Minnesota

CITY           SKY/WX    TMP DP  RH WIND       PRES   REMARKS
ST CLOUD       CLOUDY    69  66  90 SW10      29.85F
SAUK CENTRE    CLOUDY    67  63  88 W8        29.90R
PAYNESVILLE    MOCLDY    67  65  93 W10       29.89F
AITKIN         CLOUDY    68  63  83 SW7       29.84R
PINE RIVER     MOCLDY    64  61  88 CALM      29.88F
BRAINERD       CLOUDY    68  63  84 SW8       29.85S
STAPLES        CLOUDY    66  63  88 SW7       29.86F
LONG PRAIRIE   CLOUDY    66  63  88 SW6       29.89S
LITTLE FALLS   CLOUDY    68  61  77 SW6       29.87R
LITCHFIELD     MOCLDY    70  66  88 SW6       29.88F
BUFFALO        PTCLDY    68  62  81 SW5       29.87F
MAPLE LAKE     CLOUDY    69  65  86 SW3       29.87F
HUTCHINSON     MOCLDY    69  67  91 SW9       29.89F
$$
MNZ037-044-045-052-053-220200-
   East Central Minnesota

CITY           SKY/WX    TMP DP  RH WIND       PRES   REMARKS
PRINCETON      CLOUDY    72  64  78 SW6G16    29.86F
MORA           CLOUDY    68  63  83 SW5       29.87S
CAMBRIDGE      MOCLDY    72  61  68 SW8       29.86F
RUSH CITY      CLOUDY    70  64  82 SW10      29.85F
MOOSE LAKE     CLOUDY    68  64  88 SW3       29.82S
HINCKLEY       MOCLDY    70  68  94 SW6       29.84F
CLOQUET        CLOUDY    64  61  88 CALM      29.84S
MCGREGOR       CLOUDY    68  63  83 W5        29.84S
$$
MNZ071>073-080-081-089-090-097-098-220200-
   Southwest Minnesota

CITY           SKY/WX    TMP DP  RH WIND       PRES   REMARKS
MONTEVIDEO     CLEAR     70  68  94 W3        29.92S
GRANITE FALLS  CLOUDY    69  66  89 W6        29.93F
CANBY          CLEAR     71  63  74 CALM      29.95S
MARSHALL       PTCLDY    69  65  86 SW8       29.94S
REDWOOD FALLS  CLOUDY    71  64  78 W9        29.91S
OLIVIA         CLOUDY    70  64  83 W10G16    29.90S
PIPESTONE      PTCLDY    68  64  88 SW5       29.98S
WINDOM         CLOUDY    66  63  88 SW10      29.95F
WORTHINGTON    CLOUDY    66  63  90 SW7       29.98F
JACKSON        CLOUDY    64  63  94 W8        29.96F
TRACY          CLOUDY    70  67  88 SW12      29.95S
SLAYTON        MOCLDY    68  61  78 SW8       29.98F
$$
MNZ065>067-074>077-082>085-091>093-220200-
   South Central Minnesota

CITY           SKY/WX    TMP DP  RH WIND       PRES   REMARKS
MANKATO        CLOUDY    66  64  93 W12       29.91S
NEW ULM        CLOUDY    68  64  88 W10       29.91F
ST JAMES       CLOUDY    66  63  88 W9        29.94S
FAIRMONT       CLOUDY    66  63  90 W8        29.93S
GLENCOE        CLOUDY    70  67  89 SW12G21   29.87F
FARIBAULT      CLOUDY    66  64  94 W8        29.89F
OWATONNA       CLOUDY    66  63  88 W9G20     29.89R
WASECA         CLOUDY    64  61  88 W8        29.91R
ALBERT LEA     CLOUDY    66  66 100 SW6       29.89R
$$
MNZ078>079-086>088-094>096-220200-
   Southeast Minnesota

CITY           SKY/WX    TMP DP  RH WIND       PRES   REMARKS
ROCHESTER      CLOUDY    65  64  97 S15       29.84F
RED WING       CLOUDY    70  63  78 NW5       29.85R
STANTON        MOCLDY    67  64  87 W6        29.87R
DODGE CENTER   CLOUDY    64  61  88 W9        29.85R
WINONA         CLOUDY    70  66  88 W7        29.83F
AUSTIN         CLOUDY    64  63  94 S8        29.86S
PRESTON        CLOUDY    64  63  94 S8        29.87F
$$
ABBREVIATIONS USED IN REMARKS
   TC - TEMPERATURES IN CELSIUS
  WCI - WIND CHILL INDEX
   HX - HEAT INDEX
  VSB - VISIBILITY
$$




USA.gov is the U.S. government's official web portal to all federal, state and local government web resources and services.